ボリソフ彗星

C/2024 V1 ( Borisov )

English version
Home page
Updated on February 10, 2025

---------------------------------------------------------------------

・ プロフィール

発見日 2024年11月8日
発見光度 19.3等
発見者 Gennadii Vladimirovich Borisov (Nauchnij, Crimea)

・ 写真集

・ 軌道要素

Epoch 2024 Oct. 17.0 TT = JDT 2460600.5                                         
T 2025 Apr. 4.29535 TT                                  Rudenko                 
q   2.3144104            (2000.0)            P               Q                  
z  +0.0042317      Peri.  168.84354     -0.77418314     -0.46405995             
 +/-0.0015592      Node   328.14033     +0.49963204     -0.03052317             
e   0.9902061      Incl.   54.63642     +0.38859785     -0.88527775             
From 45 observations 2024 Oct. 28-Nov. 11, mean residual 0".3.                  

・ 光度変化

        m1 = 13.0 + 5 logΔ + 10.0 log r

---------------------------------------------------------------------

軌道要素はM.P.E.C. 2024-V184に掲載されたものです。
光度グラフはComet for Windowsで作成したものです。

---------------------------------------------------------------------

Copyright(C) Seiichi Yoshida (comet@aerith.net). All rights reserved.